Regional Weather Roundup
Issued by NWS New Orleans/Baton Rouge, LA

Home | Current Version | Previous Version | Text Only | Print | Product List | Glossary On
Versions: 1 2 3 4 5 6 7 8 9 10 11 12 13 14 15 16 17 18 19 20 21 22 23 24 25 26 27 28 29 30 31 32 33 34 35 36 37 38 39 40 41 42 43 44 45 46 47 48 49 50
885
ASUS44 KLIX 232001
RWRLIX
NEW ORLEANS REGIONAL WEATHER ROUNDUP
NATIONAL WEATHER SERVICE NEW ORLEANS LA
300 PM CDT WED APR 23 2014

NOTE: "FAIR" INDICATES FEW OR NO CLOUDS BELOW 12,000 FEET WITH NO
      SIGNIFICANT WEATHER AND/OR OBSTRUCTIONS TO VISIBILITY.
      SKY/WX - SKY CONDITION AND SIGNIFICANT WEATHER.
      TMP - AIR TEMPERATURE.     DP    - DEWPOINT TEMPERATURE.
      RH  - RELATIVE HUMIDITY.   PRES  - PRESSURE.
      HI  - HEAT INDEX.          WCI   - WIND CHILL INDEX.

*  THESE STATIONS ARE NOT NWS OR FAA STATIONS AND ARE NOT UNDER
   NWS QUALITY CONTROL.

LAZ038-040-048-061>063-065>067-069-232100-
SOUTHEAST LOUISIANA

CITY           SKY/WX    TMP DP  RH WIND       PRES   REMARKS
N.O. AUDUBON     N/A     85  60  42 MISG        N/A
N.O. INTL ARPT MOSUNNY   83  56  39 NE7       29.93F
N.O. LAKEFRONT SUNNY     78  64  61 NW6       29.94F
N.O. DOWNTOWN*   N/A     81  54  39 NE6       29.94F
SLIDELL        MOSUNNY   81  60  48 VRB7      29.92F
BATON ROUGE    MOSUNNY   85  54  34 N6        29.93F
BOOTHVILLE     SUNNY     78  62  57 NE3       29.95F
BELLE CHASSE   PTSUNNY   80  58  46 SE3       29.93F
BOGALUSA*        N/A     84  52  32 CALM      29.94F
GALLIANO*      NOT AVBL
NEW ROADS*     NOT AVBL
GONZALES*      NOT AVBL
HAMMOND*       NOT AVBL
HOUMA*         MOSUNNY   84  59  42 S9        29.94F
PORT FOURCHON* CLEAR     77  63  61 SE7       29.97F

$$

MSZ070-080>082-232100-
SOUTHERN MISSISSIPPI

CITY           SKY/WX    TMP DP  RH WIND       PRES   REMARKS
MCCOMB         SUNNY     81  46  29 VRB5      29.94F
GULFPORT       MOSUNNY   80  63  55 S9        29.93F
BILOXI         NOT AVBL
PASCAGOULA     SUNNY     79  65  62 S9        29.93F
STENNIS ARPT*  PTSUNNY   81  61  50 S7        29.93F

$$

COASTAL OBSERVATIONS
LAKE AND NEARSHORE STATIONS

STATION/POSITION TIME  TEMP    WIND        PRES    WAVE
                       AIR SEA DIR/SP/G            HT/PER
                 (UTC) (F)     (DEG/KT/KT) (MB)    (FT/S)
PASCAGOULA       1900   74     200/  9/ 11 1013.2
WAVELAND YACHT   1900   74 73  190/  8/ 13 1013.1
GRAND ISLE       1900   75 71  150/  5/  7 1015.0
SOUTHWEST PASS   1900   72 60  190/  3/  4 1014.8
NEW CANAL        1900   75 70  350/  4/  5 1014.5
SHELL BEACH      1900   75 70   30/  2/  3 1013.9

OFFSHORE STATIONS

STATION/POSITION TIME  TEMP    WIND        PRES    WAVE
                       AIR SEA DIR/SP/G            HT/PER
                 (UTC) (F)     (DEG/KT/KT) (MB)    (FT/S)
64 S DAUPHIN ISL 1853   69 72   10/  4/  4 1014.3

$$




USA.gov is the U.S. government's official web portal to all federal, state and local government web resources and services.